DW9896 Eastsound WA US current weather conditions

sailwx.info

Wind from 113 at 5 knots gusting 8

Air temperature 17.2° C
Dewpoint 10.6° C

Last reported at 2019-Jun-18 20:00 UTC.
Time now 2019-Jun-18 20:43 UTC

Location: N 48°40' W 122°52'.
View on Google Maps.

See reports from other nearby stations

  
Tides and Currents Weather Stations Pressure Air Temp Water Temp Dewpoint Dewpoint Depression Visibility Wind Speed Wind Dir Waves Ship Positions
date/time (UTC)wind fromknots sea level pressurealtimeterstation pressurevisibilityair tempwater tempwave heightnotes
2019-Jun-18 20:00 113 5 gusting 8 17.2
2019-Jun-18 19:47 188 5 gusting 10 17.2
2019-Jun-18 19:30 117 4 gusting 10 16.7
2019-Jun-18 19:16 170 5 gusting 9 16.7
2019-Jun-18 19:02 171 6 gusting 13 16.7
2019-Jun-18 18:46 195 6 gusting 11 17.2
2019-Jun-18 18:31 157 5 gusting 12 17.2
2019-Jun-18 18:18 190 5 gusting 11 16.7
2019-Jun-18 18:00 227 5 gusting 8 17.2
2019-Jun-18 17:47 119 2 gusting 6 16.7
2019-Jun-18 17:30 235 3 gusting 6 15.6
2019-Jun-18 17:16 174 4 gusting 7 15.6
2019-Jun-18 17:00 146 2 gusting 6 15.6
2019-Jun-18 16:46 159 2 gusting 7 15.6
2019-Jun-18 16:30 221 1 gusting 5 15.0
2019-Jun-18 16:15 217 0 gusting 4 15.0
2019-Jun-18 16:00 184 1 gusting 5 14.4
2019-Jun-18 15:46 098 1 gusting 3 12.8
2019-Jun-18 15:30 094 0 gusting 5 12.8
2019-Jun-18 15:16 110 2 gusting 6 12.8
2019-Jun-18 15:00 109 1 gusting 3 12.8
2019-Jun-18 14:46 173 1 gusting 3 12.8
2019-Jun-18 14:30 202 0 gusting 2 12.8
2019-Jun-18 14:16 248 13.3
2019-Jun-18 14:00 280 2 gusting 6 13.3
2019-Jun-18 13:47 277 13.3
2019-Jun-18 13:30 293 13.3
2019-Jun-18 13:17 300 1 gusting 3 13.3
2019-Jun-18 13:01 292 12.8
2019-Jun-18 12:31 292 13.3
2019-Jun-18 12:15 292 13.3
2019-Jun-18 12:01 292 0 gusting 3 13.3
2019-Jun-18 11:45 238 0 gusting 3 13.3
2019-Jun-18 11:31 261 2 gusting 6 13.3
2019-Jun-18 11:15 310 2 gusting 7 13.3
2019-Jun-18 11:02 284 1 gusting 6 13.9
2019-Jun-18 10:45 247 1 gusting 6 13.3
2019-Jun-18 10:31 293 0 gusting 3 13.9
2019-Jun-18 10:15 261 0 gusting 9 13.9
2019-Jun-18 10:01 329 2 gusting 7 13.9
2019-Jun-18 09:30 034 0 gusting 5 14.4
2019-Jun-18 09:01 005 0 gusting 5 14.4
2019-Jun-18 08:45 144 1 gusting 4 14.4
2019-Jun-18 08:31 098 1 gusting 3 14.4
2019-Jun-18 08:15 098 1 gusting 3 14.4
2019-Jun-18 08:01 096 2 gusting 7 15.6
2019-Jun-18 07:45 301 1 gusting 5 15.6
2019-Jun-18 07:31 096 2 gusting 6 15.0
2019-Jun-18 07:16 057 0 gusting 6 16.1
2019-Jun-18 07:01 311 0 gusting 2 16.1
2019-Jun-18 06:31 329 1 gusting 5 16.7
2019-Jun-18 06:15 092 0 gusting 7 16.7
2019-Jun-18 06:01 024 1 gusting 4 17.2
2019-Jun-18 05:46 109 1 gusting 3 17.2
2019-Jun-18 05:16 304 1 gusting 3 17.2
2019-Jun-18 05:01 304 1 gusting 5 17.2
2019-Jun-18 04:45 263 0 gusting 6 17.2
2019-Jun-18 04:30 094 2 gusting 5 16.7
2019-Jun-18 04:15 072 1 gusting 6 17.2
2019-Jun-18 04:00 104 1 gusting 6 17.2
2019-Jun-18 03:46 105 1 gusting 6 17.2
2019-Jun-18 03:30 108 2 gusting 7 17.8
2019-Jun-18 03:16 086 4 gusting 9 18.9
2019-Jun-18 03:00 180 2 gusting 8 18.9
2019-Jun-18 02:46 080 6 gusting 7 18.9
2019-Jun-18 02:16 064 6 gusting 8 17.8
2019-Jun-18 02:00 119 3 gusting 6 18.3
2019-Jun-18 01:46 171 3 gusting 8 19.4
2019-Jun-18 01:30 146 3 gusting 9 19.4
2019-Jun-18 01:15 091 4 gusting 7 18.9
2019-Jun-18 01:01 107 4 gusting 7 19.4
2019-Jun-18 00:31 115 4 gusting 10 18.3
2019-Jun-18 00:15 109 4 gusting 9 18.3
2019-Jun-18 00:02 116 3 gusting 8 18.3
2019-Jun-17 23:45 099 5 gusting 11 17.8
2019-Jun-17 23:31 128 5 gusting 10 18.9
2019-Jun-17 23:15 126 5 gusting 11 18.3
2019-Jun-17 23:02 114 3 gusting 10 18.3
2019-Jun-17 22:45 132 3 gusting 10 17.8
2019-Jun-17 22:31 098 6 gusting 10 17.8
2019-Jun-17 22:15 130 5 gusting 13 17.8
2019-Jun-17 22:01 130 5 gusting 9 17.2
2019-Jun-17 21:45 108 4 gusting 9 17.8
2019-Jun-17 21:30 102 4 gusting 11 17.2
2019-Jun-17 21:17 115 5 gusting 9 17.2
2019-Jun-17 21:00 120 5 gusting 9 18.3
2019-Jun-17 20:45 125 4 gusting 9 17.8
2019-Jun-17 20:31 184 6 gusting 10 17.8
2019-Jun-17 20:16 150 4 gusting 10 17.8
2019-Jun-17 20:00 135 5 gusting 8 17.8
2019-Jun-17 19:45 120 4 gusting 10 17.2
2019-Jun-17 19:30 148 2 gusting 6 17.2
2019-Jun-17 19:15 159 5 gusting 8 16.7
2019-Jun-17 19:02 099 4 gusting 7 16.1
2019-Jun-17 18:46 128 4 gusting 8 15.6
2019-Jun-16 23:01 175 3 gusting 8 18.9
2019-Jun-16 22:47 175 7 gusting 12 18.9
2019-Jun-16 22:31 173 5 gusting 12 19.4
2019-Jun-16 22:15 148 2 gusting 6 19.4
2019-Jun-16 22:01 133 4 gusting 10 19.4
2019-Jun-16 21:45 169 6 gusting 11 18.9
2019-Jun-16 21:31 175 6 gusting 11 19.4
2019-Jun-16 21:16 188 4 gusting 9 19.4
2019-Jun-16 21:00 192 6 gusting 8 19.4
2019-Jun-16 20:46 190 3 gusting 7 19.4
2019-Jun-16 20:31 209 5 gusting 7 19.4
2019-Jun-16 20:17 206 3 gusting 7 18.3
2019-Jun-16 20:01 167 4 gusting 7 19.4